This demonstration page uses our WeatherBlox Daily Observations layout. Learn more.

38.88101, -77.10428

Hourly Observations for September 18, 2015

Temp ( °F °C ) Dew Point ( °F °C ) Humidity (%) Winds ( mph kmh ) Pressure ( in mb ) Visibility ( mi km ) Precip ( " mm )
12:52 am 00:52 Clear 70 21.1 61 16.1 73 73 SSW 7 11 30.08 1019 10 16.0934 0 0
1:52 am 01:52 Clear 68 20 61 16.1 78 78 SSW 7 11 30.06 1018 10 16.0934 0 0
2:52 am 02:52 Clear 68 20 62 16.7 81 81 SW 5 7 30.05 1018 10 16.0934 0 0
3:52 am 03:52 Clear 66 18.9 61 16.1 84 84 SSW 5 7 30.04 1017 10 16.0934 0 0
4:52 am 04:52 Mostly Clear 66 18.9 61 16.1 84 84 SW 3 6 30.04 1017 10 16.0934 0 0
5:52 am 05:52 Mostly Clear 65 18.3 62 16.7 90 90 Calm 30.04 1017 10 16.0934 0 0
6:25 am 06:25 Mostly Clear 64 18 61 16 88 88 Calm 30.06 1018 10 16.0934 0 0
6:52 am 06:52 Mostly Clear 65 18.3 62 16.7 90 90 Calm 30.05 1018 10 16.0934 0 0
7:52 am 07:52 Mostly Sunny 66 18.9 63 17.2 90 90 SE 3 6 30.06 1018 10 16.0934 0 0
8:52 am 08:52 Sunny 69 20.6 64 17.8 84 84 S 3 6 30.07 1018 10 16.0934 0 0
9:52 am 09:52 Sunny 72 22.2 64 17.8 76 76 SSE 5 7 30.07 1018 10 16.0934 0 0
10:52 am 10:52 Sunny 76 24.4 63 17.2 64 64 S 7 11 30.06 1018 10 16.0934 0 0
11:52 am 11:52 Mostly Sunny 80 26.7 60 15.6 51 51 S 8 13 30.05 1018 10 16.0934 0 0
12:52 pm 12:52 Partly Cloudy 84 28.9 59 15 43 43 SSW 6 9 30.04 1017 10 16.0934 0 0
1:52 pm 13:52 Partly Cloudy 84 28.9 54 12.2 36 36 VRB 3 6 30.02 1017 10 16.0934 0 0
2:52 pm 14:52 Partly Cloudy 86 30 54 12.2 33 33 S 7 11 29.98 1015 10 16.0934 0 0
3:52 pm 15:52 Partly Cloudy 86 30 55 12.8 35 35 SSW 9 15 29.97 1015 10 16.0934 0 0
4:52 pm 16:52 Mostly Sunny 85 29.4 57 13.9 39 39 SSW 9 15 29.95 1014 10 16.0934 0 0
5:52 pm 17:52 Mostly Sunny 83 28.3 61 16.1 48 48 S 12 19 29.95 1014 10 16.0934 0 0
6:52 pm 18:52 Mostly Sunny 80 26.7 59 15 49 49 SSE 9 15 29.96 1015 10 16.0934 0 0
7:52 pm 19:52 Mostly Clear 77 25 59 15 54 54 SSE 8 13 29.98 1015 10 16.0934 0 0
8:52 pm 20:52 Clear 75 23.9 58 14.4 55 55 S 8 13 30 1016 10 16.0934 0 0
9:52 pm 21:52 Clear 73 22.8 59 15 62 62 S 8 13 30 1016 10 16.0934 0 0
10:52 pm 22:52 Clear 72 22.2 62 16.7 71 71 S 9 15 30 1016 10 16.0934 0 0
11:52 pm 23:52 Clear 71 21.7 64 17.8 79 79 S 9 15 30 1016 10 16.0934 0 0

Powered by AerisWeather